Location: Abraham Lincoln Continuation High School
(33.9711°N, 117.3662°W)
Time: 13:48:42
(UTC+00:00)

NOSS 3-4 (C) - Pass Details

Date: 21 September 2020
Orbit: 886 x 1326 km, 63.4° (Epoch: 27 October)

Event Time Altitude Azimuth Distance (km) Brightness Sun altitude
Rises 04:06:41 0° 217° (SW) 3,480 6.6 -28.9°
Reaches altitude 10° 04:09:10 10° 220° (SW) 2,539 5.8 -29.3°
Maximum altitude 04:14:57 67° 302° (WNW) 973 3.6 -30.4°
Enters shadow 04:17:55 31° 16° (NNE) 1,561 4.6 -31.0°
Exits shadow 04:21:29 - 26° (NNE) 2,822 5.9 -31.7°
Sets 04:23:42 0° 29° (NNE) 3,657 6.5 -32.1°
